Location: *
(51.5000°N, 0.1100°W)
Time: 05:54:20
(UTC+00:00)

IDEFIX/ARIANE 42P - Pass Details

Date: 10 August 2024
Orbit: 782 x 799 km, 98.5° (Epoch: 08 September)

Event Time Altitude Azimuth Distance (km) Brightness Sun altitude
Rises 00:59:23 0° 21° (NNE) 3,284 7.3 -22.0°
Reaches altitude 10° 01:01:58 10° 32° (NNE) 2,351 6.0 -21.9°
Maximum altitude 01:06:34 31° 95° (E) 1,344 3.8 -21.7°
Enters shadow 01:08:40 23° 135° (SE) 1,608 3.9 -21.7°
